LAGEOS 2

Last updated on Mon Nov 03 2025 00:03:54 GMT+0000 (Coordinated Universal Time)

1 22195U 92070B 25305.62897314 -.00000009 00000+0 00000+0 0 9990 2 22195 52.6701 50.4441 0137812 87.9615 273.1253 6.47293470780682
UTC large
Height (km)
Speed (km/s)
/
Latitude / Longitude
Inclination (degrees)
Orbital Period (minutes)
Azimuth
Elevation
Range (km)
Doppler Factor

Next 0 passes for location: London (51.5072 / 0.1276)

Sorry there are no passes over London.